SCP
0 0 0 0 0 0 0 0 0 0 0 0 0 -0 0 0 0 0 0 -0 -0 -0 -0 -0 -0 -0 -0 -0 -0 -0 0 0 0 -0 -0 -0 -0 -0 -0 -0 -0 -0 -0 -0 -0 -0 -0 -0 -0
0 0 0 0 0 0 0 0 0 0 0 0 0 0 0 0 0 0 0 -0 -0 -0 -0 -0 -0 -0 -0 -0 -0 -0 0 0 0 -0 -0 -0 -0 -0 -0 -0 -0 -0 -0 -0 -0 -0 -0 0 -0
0 0 0 0 0 0 0 0 0 0 0 0 0 0 0 0 -0 -0 0 -0 -0 -0 -0 -0 -0 -0 -0 -0 -0 -0 0 0 -0 -0 -0 -0 -0 -0 -0 -0 -0 0 0 0 0 0 0 -0 -0
0 0 0 0 0 0 0 0 0 0 0 0 0 0 0 -0 -0 -0 -0 -0 -0 -0 0 -0 -0 -0 -0 -0 -0 -0 0 0 0 -0 -0 -0 -0 -0 -0 -0 0 0 0 0 0 0 -0 -0 0
0 0 0 0 0 0 0 0 0 0 0 0 0 0 0 0 -0 -0 -0 -0 -0 0 0 0 -0 -0 -0 -0 -0 -0 -0 0 0 0 0 -0 0 -0 -0 -0 0 0 0 0 0 0 0 0 0
0 0 0 0 0 0 0 0 0 0 0 0 0 0 0 0 -0 -0 -0 -0 -0 -0 0 0 0 -0 -0 -0 -0 -0 -0 -0 -0 -0 -0 -0 -0 0 0 0 0 0 0 0 0 0 0 0 0
0 0 0 0 0 0 0 0 0 0 0 0 0 0 0 -0 0 -0 -0 -0 -0 -0 -0 0 0 0 -0 -0 -0 -0 -0 -0 -0 -0 -0 0 0 0 0 0 0 0 0 0 0 0 0 0 0
0 0 0 0 0 0 0 0 0 0 0 0 0 -0 0 -0 -0 -0 -0 -0 -0 -0 -0 -0 0 -0 -0 -0 -0 0 0 0 0 0 0 0 0 -0 -0 0 0 0 0 0 0 0 0 0 0
0 0 0 0 0 0 0 0 0 0 0 0 0 0 0 -0 -0 -0 -0 -0 -0 0 0 0 0 -0 -0 -0 -0 -0 -0 -0 -0 0 0 0 0 -0 -0 -0 -0 -0 0 0 0 0 0 0 0
0 0 0 0 0 0 0 0 0 0 0 0 0 0 0 -0 -0 -0 -0 -0 -0 -0 0 0 0 -0 -0 -0 -0 -0 -0 -0 -0 0 0 0 0 -0 -0 -0 -0 -0 0 0 0 0 0 0 0
0 0 0 0 0 0 0 0 0 0 0 0 0 0 0 -0 0 -0 -0 -0 -0 -0 -0 -0 -0 -0 -0 -0 -0 -0 -0 -0 -0 -0 -0 -0 -0 0 0 -0 0 0 -0 0 0 0 0 0 0
0 0 0 0 0 0 0 0 0 0 0 0 0 0 0 -0 -0 -0 -0 -0 0 -0 -0 -0 -0 -0 -0 -0 -0 -0 -0 -0 -0 0 0 0 0 0 0 0 0 0 0 0 0 0 0 0 0
0 0 0 0 0 0 0 0 0 0 0 0 0 0 0 0 0 0 0 -0 -0 -0 -0 -0 -0 -0 -0 -0 -0 -0 -0 0 0 0 0 0 0 0 0 0 0 0 0 0 0 0 0 0 0
0 0 0 0 0 0 0 0 0 0 0 0 0 0 0 0 0 0 -0 -0 -0 -0 -0 -0 -0 -0 0 -0 -0 -0 -0 0 0 0 0 0 0 0 0 0 0 0 0 0 0 0 0 0 0
0 0 0 0 0 0 0 0 0 0 0 0 0 0 0 0 0 0 -0 -0 0 -0 -0 0 0 0 0 0 0 0 0 0 0 0 0 0 0 0 0 0 0 0 0 0 0 0 0 0 0
0 0 0 0 0 0 0 0 0 0 0 0 0 0 0 0 0 0 0 0 0 0 0 0 0 0 0 0 0 0 0 0 0 0 0 0 0 0 0 0 0 0 0 0 0 0 0 0 0
0 0 0 0 0 0 0 0 0 0 0 0 0 0 0 0 0 0 0 0 0 0 0 0 0 0 0 0 0 0 0 0 0 0 0 0 0 0 0 0 0 0 0 0 0 0 0 0 0
0 0 0 0 0 0 0 0 0 0 0 0 0 0 0 0 0 0 0 0 0 0 0 0 0 0 0 0 0 0 0 0 0 0 0 0 0 0 0 0 0 0 0 0 0 0 0 0 0
0 0 0 0 0 0 0 0 0 0 0 0 0 0 0 0 0 0 0 0 0 0 0 0 0 0 0 0 0 0 0 0 0 0 0 0 0 0 0 0 0 0 0 0 0 0 0 0 0
0 0 0 0 0 0 0 0 0 0 0 0 0 0 0 0 0 0 0 0 0 0 0 0 0 0 0 0 0 0 0 0 0 0 0 0 0 0 0 0 0 0 0 0 0 0 0 0 0
0 0 0 0 0 0 0 0 0 0 0 0 0 0 0 0 0 0 0 0 0 0 0 0 0 0 0 0 0 0 0 0 0 0 0 0 0 0 0 0 0 0 0 0 0 0 0 0 0
0 0 0 0 0 0 0 0 0 0 0 0 0 0 0 0 0 0 0 0 0 0 0 0 0 0 0 0 0 0 0 0 0 0 0 0 0 0 0 0 0 0 0 0 0 0 0 0 0
0 0 0 0 0 0 0 0 0 0 0 0 0 0 0 0 0 0 0 0 0 0 0 0 0 0 0 0 0 0 0 0 0 0 0 0 0 0 0 0 0 0 0 0 0 0 0 0 0
0 0 0 0 0 0 0 0 0 0 0 0 0 0 0 0 0 0 0 0 0 0 0 0 0 0 0 0 0 0 0 0 0 0 0 0 0 0 0 0 0 0 0 0 0 0 0 0 0
0 0 0 0 0 0 0 0 0 0 0 0 0 0 0 0 0 0 0 0 0 0 0 0 0 0 0 0 0 0 0 0 0 0 0 0 0 0 0 0 0 0 0 0 0 0 0 0 0
0 0 0 0 0 0 0 0 0 0 0 0 0 0 0 0 0 0 0 0 0 0 0 0 0 0 0 0 0 0 0 0 0 0 0 0 0 0 0 0 0 0 0 0 0 0 0 0 0
0 0 0 0 0 0 0 0 0 0 0 0 0 0 0 0 0 0 0 0 0 0 0 0 0 0 0 0 0 0 0 0 0 0 0 0 0 0 0 0 0 0 0 0 0 0 0 0 0
0 0 0 0 0 0 0 0 0 0 0 0 0 0 0 0 0 0 0 0 0 0 0 0 0 0 0 0 0 0 0 0 0 0 0 0 0 0 0 0 0 0 0 0 0 0 0 0 0
0 0 0 0 0 0 0 0 0 0 0 0 0 0 0 0 0 0 0 0 0 0 0 0 0 0 0 0 0 0 0 0 0 0 0 0 0 0 0 0 0 0 0 0 0 0 0 0 0
0 0 0 0 0 0 0 0 0 0 0 0 0 0 0 0 0 0 0 0 0 0 0 0 0 0 0 0 0 0 0 0 0 0 0 0 0 0 0 0 0 0 0 0 0 0 0 0 0
Wind_Speed_500mb
14 5 2 3 6 8 5 4 1 7 4 3 18 8 13 9 5 5 30 32 34 34 30 28 27 28 34 28 22 20 17 14 12 12 15 20 17 15 15 13 8 11 17 17 14 13 13 14 17
6 6 5 1 8 5 8 6 10 8 17 35 25 16 10 5 7 26 44 32 32 31 31 32 32 26 31 26 19 16 13 10 9 9 9 13 15 12 10 4 9 12 15 15 15 15 14 13 13
12 9 5 7 5 4 6 4 7 15 23 7 10 13 6 8 18 47 34 43 36 32 30 32 33 27 25 24 19 12 10 9 6 6 7 9 9 6 2 7 11 12 9 11 10 13 13 11 10
11 4 6 7 3 6 3 2 13 16 5 6 19 12 8 6 43 27 42 42 35 32 30 31 32 28 23 20 15 12 10 8 7 6 6 7 4 5 4 7 11 9 9 13 14 10 9 10 9
8 4 7 4 6 6 6 7 26 8 10 13 6 8 16 28 16 38 43 41 37 34 31 28 30 26 21 19 14 12 12 11 11 10 9 9 6 5 4 6 9 10 9 9 9 8 8 8 8
6 5 7 1 7 8 1 17 13 6 6 13 16 15 12 11 24 40 40 40 35 31 30 27 28 27 22 15 14 15 14 15 14 14 12 10 7 6 5 5 7 8 7 7 8 8 7 7 7
7 6 4 3 6 9 7 12 13 12 9 4 24 9 12 27 37 36 39 38 35 29 26 26 26 25 20 16 17 17 16 14 13 13 13 12 10 9 7 6 6 6 6 7 7 7 8 9 9
6 7 4 5 3 6 3 12 9 15 7 21 13 11 14 44 45 39 40 37 33 29 25 23 23 21 18 17 17 15 15 15 13 10 9 8 6 5 4 5 6 7 8 8 9 10 11 12 13
1 6 3 4 2 9 10 4 8 10 22 13 12 8 9 52 50 47 44 42 37 33 28 23 21 20 18 18 18 17 16 13 9 7 5 4 5 6 8 8 10 13 13 15 15 15 16 15 14
6 5 12 4 5 5 19 6 16 8 19 7 13 11 25 56 56 54 51 49 42 39 33 25 22 21 20 19 17 14 13 10 7 4 3 5 7 7 10 11 14 15 17 21 20 21 21 22 23
9 9 4 1 9 13 13 6 13 16 4 21 27 26 50 60 58 55 49 43 38 33 33 28 25 23 21 19 17 15 12 9 6 4 2 1 5 9 11 13 15 17 19 22 22 22 26 27 28
8 9 4 3 10 13 10 15 6 26 7 19 22 27 55 61 61 57 48 40 38 36 30 28 26 25 22 20 17 14 11 8 7 5 2 1 4 8 11 13 16 18 20 21 24 26 29 29 25
11 13 8 5 20 16 14 18 7 25 9 10 28 41 53 57 57 51 40 34 31 32 28 29 27 25 23 21 19 16 12 10 8 6 5 5 7 10 12 14 16 18 22 24 25 27 29 32 34
26 21 12 11 9 13 6 8 4 12 17 22 37 49 53 53 56 50 48 40 33 28 25 26 26 24 24 21 19 15 13 11 11 10 10 11 14 17 20 22 22 22 25 28 31 34 36 36 36
16 8 3 5 1 5 9 6 13 8 22 32 45 50 51 52 51 51 46 41 32 28 20 22 21 22 22 20 20 18 14 16 16 15 17 20 21 22 25 29 33 32 33 36 38 38 41 47 45
10 5 10 4 2 3 7 14 8 9 32 39 45 52 51 54 52 47 44 39 32 28 25 19 21 22 22 19 18 18 18 20 21 24 26 27 29 31 34 37 38 38 41 42 47 47 47 47 52
3 9 14 5 5 2 9 11 10 6 32 39 47 51 53 52 51 50 45 40 33 26 24 23 23 22 18 18 18 20 23 27 26 28 31 33 36 38 42 45 46 47 50 49 53 55 55 56 55
9 11 7 21 5 1 4 10 5 8 23 35 43 48 52 52 50 45 45 38 36 31 27 25 24 24 22 21 23 23 26 27 27 29 31 34 39 42 48 53 55 59 62 60 59 59 56 58 62
5 8 8 3 5 7 3 8 11 9 11 26 40 48 51 49 41 39 41 39 38 38 37 34 32 26 30 30 28 26 25 27 31 35 40 44 45 49 54 58 55 55 57 56 54 55 58 58 61
4 12 11 3 5 7 5 11 7 7 10 26 39 42 46 39 37 39 42 44 44 46 44 42 40 41 39 40 39 40 40 41 43 44 45 46 48 50 52 57 59 54 53 52 49 50 57 59 55
7 11 10 6 8 6 10 6 6 3 4 6 5 16 27 28 32 33 34 38 41 44 44 46 47 46 45 44 43 44 44 43 47 44 47 48 50 52 53 52 50 48 47 48 47 49 55 61 53
16 13 4 16 16 9 3 7 11 9 10 23 25 21 14 19 19 13 12 14 14 20 22 24 25 26 28 30 31 31 33 34 35 41 45 44 41 40 40 42 44 44 44 45 45 45 46 51 57
3 1 13 6 8 5 4 5 5 12 5 9 27 27 28 28 34 31 25 20 18 13 12 7 6 6 10 10 13 17 21 23 27 26 28 29 29 31 34 36 38 38 40 41 43 46 51 54 58
16 10 13 9 5 7 13 14 7 10 15 13 25 34 36 37 46 46 45 43 43 36 32 25 17 12 11 7 6 7 9 12 16 20 25 29 32 32 31 32 34 36 37 40 44 47 50 51 52
11 14 2 1 5 6 4 10 1 3 24 33 39 50 55 51 48 57 57 53 47 45 40 29 24 21 18 15 14 17 20 22 24 27 30 34 36 38 40 41 41 41 41 41 43 45 47 49 54
11 14 6 12 8 5 6 12 7 7 27 63 60 56 46 35 30 32 31 23 28 27 24 22 23 22 21 17 21 20 21 22 25 28 32 35 38 40 44 44 45 47 47 48 49 51 52 51 51
8 7 5 9 4 4 6 7 9 6 11 41 47 46 39 30 25 12 7 14 27 24 19 7 15 21 22 17 16 16 19 22 27 30 32 34 37 38 41 42 44 47 50 54 58 60 62 64 65
2 22 7 2 10 6 5 8 7 7 12 25 32 45 45 41 33 25 19 12 16 19 16 8 7 7 4 7 12 18 22 25 27 30 34 36 39 42 45 46 50 53 56 60 61 63 63 65 64
6 8 6 5 3 7 5 8 7 12 19 30 43 51 57 49 42 39 39 33 26 21 17 12 6 3 6 12 16 20 23 25 27 29 32 35 38 42 46 51 54 56 59 60 63 65 69 73 75
3 9 6 6 8 5 3 6 13 9 18 42 51 50 49 54 51 46 40 31 22 15 11 9 11 11 15 18 19 21 23 25 27 29 32 36 42 47 52 55 57 59 60 61 65 69 70 74 80
Wind_Direction_500mb
63 93 189 325 53 63 293 276 297 98 94 137 138 151 158 73 142 186 146 153 157 157 154 147 138 144 152 147 141 144 142 141 133 124 134 122 107 105 103 99 77 35 30 23 51 45 56 52 51
10 340 302 12 83 50 274 258 171 151 125 108 98 93 60 91 105 139 145 149 158 155 151 151 148 150 165 161 157 149 153 159 157 153 159 170 124 115 127 81 11 360 12 27 42 53 54 53 51
352 325 335 88 105 172 235 209 136 128 124 91 105 73 78 117 133 140 149 147 157 154 150 152 151 158 157 174 184 180 170 171 168 165 164 187 191 203 23 352 344 343 11 19 52 56 52 48 51
350 307 56 81 221 256 255 137 135 129 106 140 126 67 72 198 138 146 146 147 154 150 149 154 157 163 163 160 167 170 168 167 165 158 131 137 115 58 35 15 18 33 26 30 45 47 46 41 26
350 25 55 57 282 277 313 171 152 141 133 137 157 119 107 133 143 148 146 148 155 150 148 153 161 161 157 156 157 157 153 142 130 125 120 116 101 82 74 56 50 51 47 30 30 36 28 18 357
15 64 53 193 268 289 43 153 150 91 125 132 105 100 147 176 168 154 150 150 157 154 149 148 156 162 164 168 158 151 143 133 120 109 105 103 101 97 86 54 40 39 43 43 37 34 26 13 356
72 71 165 242 289 320 150 161 150 138 139 157 138 93 148 161 164 158 156 157 160 162 157 154 153 161 166 162 156 149 141 134 120 110 100 89 79 70 57 44 38 37 31 22 14 2 354 349 344
27 91 99 294 288 295 11 156 184 159 159 150 147 159 177 169 166 161 161 164 167 170 168 170 167 166 164 161 156 147 145 136 127 107 92 81 69 52 20 352 344 343 340 332 324 321 321 321 320
139 57 123 255 280 316 14 9 150 166 141 161 191 178 181 166 168 164 166 170 172 177 179 179 182 177 167 153 150 144 139 143 139 127 107 70 42 14 0 345 328 326 323 316 310 309 310 312 312
124 123 206 215 302 319 315 253 175 169 147 178 186 204 167 170 173 175 174 177 179 181 182 182 186 187 178 171 165 161 158 157 157 151 113 79 62 39 26 22 21 9 348 338 324 315 311 303 305
162 188 198 138 341 344 310 288 186 154 223 206 192 176 169 175 179 185 184 187 187 185 185 185 184 191 194 188 183 180 180 168 163 163 149 104 46 37 27 19 15 15 13 13 7 355 345 339 324
148 228 242 305 341 325 322 316 249 186 214 229 216 193 176 183 186 189 190 187 190 192 191 190 189 188 192 197 198 191 198 203 188 170 165 9 347 3 9 9 6 1 358 359 355 351 348 340 339
181 185 224 272 329 320 308 274 232 224 243 199 192 184 186 188 190 192 196 192 195 197 193 194 198 196 198 200 203 206 204 202 204 216 244 295 319 333 337 339 339 338 334 338 335 334 334 331 329
183 180 202 299 308 309 324 307 173 220 218 177 185 187 191 193 193 193 198 196 199 198 200 198 201 203 210 205 206 213 223 222 236 253 277 289 301 308 313 315 316 320 319 320 319 316 318 320 317
137 153 236 185 201 302 320 293 235 214 187 178 185 190 195 199 199 204 203 204 204 203 202 205 201 201 208 210 216 226 242 258 264 274 279 286 292 296 299 303 307 311 311 308 307 309 310 310 310
127 122 198 152 23 239 147 272 331 220 186 185 191 195 200 204 208 209 213 214 216 217 215 216 219 222 224 223 237 252 262 271 279 285 285 288 293 298 299 300 302 305 302 300 300 302 302 305 307
305 197 216 187 95 196 175 254 341 239 195 195 196 200 205 210 213 215 216 223 226 229 227 227 231 235 241 251 263 268 275 277 284 287 293 299 300 302 301 300 301 301 298 296 296 297 301 304 305
184 209 187 204 213 126 133 255 335 344 216 209 205 207 211 217 220 219 220 227 234 238 239 238 243 248 253 258 262 268 272 282 294 304 307 308 304 306 302 298 301 301 298 299 301 298 298 302 305
178 191 177 70 139 149 218 241 266 319 260 219 218 213 219 223 225 226 224 231 238 241 246 248 247 252 255 256 260 271 284 292 296 296 298 300 297 295 293 294 298 303 303 303 305 304 303 301 302
182 210 205 82 342 140 160 263 242 276 260 239 228 226 227 227 227 228 225 227 234 241 245 248 249 250 251 257 259 264 273 281 286 291 293 296 297 297 297 294 293 296 298 300 301 301 301 301 301
221 220 201 176 141 9 130 257 217 141 88 36 67 242 241 232 228 226 226 228 232 240 245 247 249 250 250 254 258 265 274 280 284 286 289 289 291 290 290 290 291 292 293 294 296 298 299 301 300
238 184 131 130 161 205 145 254 232 188 88 56 48 62 113 174 178 161 182 214 229 243 249 253 254 251 256 260 263 267 273 280 288 295 297 298 299 299 299 297 296 294 292 293 292 292 294 300 304
195 359 147 155 145 116 229 201 166 163 137 107 76 77 87 105 117 113 110 108 110 109 117 116 157 194 235 254 269 278 285 290 292 297 304 309 314 317 319 319 317 312 306 299 294 292 292 293 297
141 87 46 45 77 221 174 198 195 192 158 122 108 103 93 91 105 104 104 108 104 102 97 97 88 80 62 22 9 356 343 330 319 316 316 321 326 327 327 328 327 326 321 315 310 306 303 300 297
148 121 98 177 189 236 295 187 296 181 147 139 132 117 113 108 100 103 100 94 97 94 89 79 78 81 64 45 19 359 351 342 338 333 330 326 325 327 330 332 332 328 323 318 313 309 308 306 304
165 157 188 181 196 160 4 226 235 234 152 148 134 133 132 128 101 91 89 51 31 41 38 35 40 45 31 353 340 335 330 334 334 332 330 329 326 324 321 320 321 320 319 317 314 310 307 303 298
149 147 28 105 43 99 203 289 300 91 119 146 139 136 133 137 156 177 311 4 352 3 360 356 324 350 339 353 355 358 358 351 350 347 341 336 334 332 329 329 327 326 327 325 321 318 314 312 309
251 143 122 29 150 207 249 271 229 181 151 150 139 124 133 132 133 129 111 130 134 120 113 125 112 108 61 344 337 344 344 339 335 332 327 329 329 329 329 331 330 330 329 327 324 323 321 318 315
133 135 82 107 160 146 150 251 330 187 167 142 135 139 148 145 143 138 131 134 133 136 142 133 121 52 353 345 345 340 336 333 332 330 329 332 331 330 333 334 332 330 325 321 319 316 314 313 312
197 170 146 132 208 249 186 260 318 165 116 132 126 132 143 142 138 136 136 135 133 121 99 73 47 22 13 2 350 345 345 340 339 341 340 340 339 340 338 335 331 327 325 324 321 319 318 314 311
Wind_Speed_850mb
14 5 2 3 6 8 5 4 1 7 4 3 18 8 13 9 5 5 30 32 34 34 30 28 27 28 34 28 22 20 17 14 12 12 15 20 17 15 15 13 8 11 17 17 14 13 13 14 17
6 6 5 1 8 5 8 6 10 8 17 35 25 16 10 5 7 26 44 32 32 31 31 32 32 26 31 26 19 16 13 10 9 9 9 13 15 12 10 4 9 12 15 15 15 15 14 13 13
12 9 5 7 5 4 6 4 7 15 23 7 10 13 6 8 18 47 34 43 36 32 30 32 33 27 25 24 19 12 10 9 6 6 7 9 9 6 2 7 11 12 9 11 10 13 13 11 10
11 4 6 7 3 6 3 2 13 16 5 6 19 12 8 6 43 27 42 42 35 32 30 31 32 28 23 20 15 12 10 8 7 6 6 7 4 5 4 7 11 9 9 13 14 10 9 10 9
8 4 7 4 6 6 6 7 26 8 10 13 6 8 16 28 16 38 43 41 37 34 31 28 30 26 21 19 14 12 12 11 11 10 9 9 6 5 4 6 9 10 9 9 9 8 8 8 8
6 5 7 1 7 8 1 17 13 6 6 13 16 15 12 11 24 40 40 40 35 31 30 27 28 27 22 15 14 15 14 15 14 14 12 10 7 6 5 5 7 8 7 7 8 8 7 7 7
7 6 4 3 6 9 7 12 13 12 9 4 24 9 12 27 37 36 39 38 35 29 26 26 26 25 20 16 17 17 16 14 13 13 13 12 10 9 7 6 6 6 6 7 7 7 8 9 9
6 7 4 5 3 6 3 12 9 15 7 21 13 11 14 44 45 39 40 37 33 29 25 23 23 21 18 17 17 15 15 15 13 10 9 8 6 5 4 5 6 7 8 8 9 10 11 12 13
1 6 3 4 2 9 10 4 8 10 22 13 12 8 9 52 50 47 44 42 37 33 28 23 21 20 18 18 18 17 16 13 9 7 5 4 5 6 8 8 10 13 13 15 15 15 16 15 14
6 5 12 4 5 5 19 6 16 8 19 7 13 11 25 56 56 54 51 49 42 39 33 25 22 21 20 19 17 14 13 10 7 4 3 5 7 7 10 11 14 15 17 21 20 21 21 22 23
9 9 4 1 9 13 13 6 13 16 4 21 27 26 50 60 58 55 49 43 38 33 33 28 25 23 21 19 17 15 12 9 6 4 2 1 5 9 11 13 15 17 19 22 22 22 26 27 28
8 9 4 3 10 13 10 15 6 26 7 19 22 27 55 61 61 57 48 40 38 36 30 28 26 25 22 20 17 14 11 8 7 5 2 1 4 8 11 13 16 18 20 21 24 26 29 29 25
11 13 8 5 20 16 14 18 7 25 9 10 28 41 53 57 57 51 40 34 31 32 28 29 27 25 23 21 19 16 12 10 8 6 5 5 7 10 12 14 16 18 22 24 25 27 29 32 34
26 21 12 11 9 13 6 8 4 12 17 22 37 49 53 53 56 50 48 40 33 28 25 26 26 24 24 21 19 15 13 11 11 10 10 11 14 17 20 22 22 22 25 28 31 34 36 36 36
16 8 3 5 1 5 9 6 13 8 22 32 45 50 51 52 51 51 46 41 32 28 20 22 21 22 22 20 20 18 14 16 16 15 17 20 21 22 25 29 33 32 33 36 38 38 41 47 45
10 5 10 4 2 3 7 14 8 9 32 39 45 52 51 54 52 47 44 39 32 28 25 19 21 22 22 19 18 18 18 20 21 24 26 27 29 31 34 37 38 38 41 42 47 47 47 47 52
3 9 14 5 5 2 9 11 10 6 32 39 47 51 53 52 51 50 45 40 33 26 24 23 23 22 18 18 18 20 23 27 26 28 31 33 36 38 42 45 46 47 50 49 53 55 55 56 55
9 11 7 21 5 1 4 10 5 8 23 35 43 48 52 52 50 45 45 38 36 31 27 25 24 24 22 21 23 23 26 27 27 29 31 34 39 42 48 53 55 59 62 60 59 59 56 58 62
5 8 8 3 5 7 3 8 11 9 11 26 40 48 51 49 41 39 41 39 38 38 37 34 32 26 30 30 28 26 25 27 31 35 40 44 45 49 54 58 55 55 57 56 54 55 58 58 61
4 12 11 3 5 7 5 11 7 7 10 26 39 42 46 39 37 39 42 44 44 46 44 42 40 41 39 40 39 40 40 41 43 44 45 46 48 50 52 57 59 54 53 52 49 50 57 59 55
7 11 10 6 8 6 10 6 6 3 4 6 5 16 27 28 32 33 34 38 41 44 44 46 47 46 45 44 43 44 44 43 47 44 47 48 50 52 53 52 50 48 47 48 47 49 55 61 53
16 13 4 16 16 9 3 7 11 9 10 23 25 21 14 19 19 13 12 14 14 20 22 24 25 26 28 30 31 31 33 34 35 41 45 44 41 40 40 42 44 44 44 45 45 45 46 51 57
3 1 13 6 8 5 4 5 5 12 5 9 27 27 28 28 34 31 25 20 18 13 12 7 6 6 10 10 13 17 21 23 27 26 28 29 29 31 34 36 38 38 40 41 43 46 51 54 58
16 10 13 9 5 7 13 14 7 10 15 13 25 34 36 37 46 46 45 43 43 36 32 25 17 12 11 7 6 7 9 12 16 20 25 29 32 32 31 32 34 36 37 40 44 47 50 51 52
11 14 2 1 5 6 4 10 1 3 24 33 39 50 55 51 48 57 57 53 47 45 40 29 24 21 18 15 14 17 20 22 24 27 30 34 36 38 40 41 41 41 41 41 43 45 47 49 54
11 14 6 12 8 5 6 12 7 7 27 63 60 56 46 35 30 32 31 23 28 27 24 22 23 22 21 17 21 20 21 22 25 28 32 35 38 40 44 44 45 47 47 48 49 51 52 51 51
8 7 5 9 4 4 6 7 9 6 11 41 47 46 39 30 25 12 7 14 27 24 19 7 15 21 22 17 16 16 19 22 27 30 32 34 37 38 41 42 44 47 50 54 58 60 62 64 65
2 22 7 2 10 6 5 8 7 7 12 25 32 45 45 41 33 25 19 12 16 19 16 8 7 7 4 7 12 18 22 25 27 30 34 36 39 42 45 46 50 53 56 60 61 63 63 65 64
6 8 6 5 3 7 5 8 7 12 19 30 43 51 57 49 42 39 39 33 26 21 17 12 6 3 6 12 16 20 23 25 27 29 32 35 38 42 46 51 54 56 59 60 63 65 69 73 75
3 9 6 6 8 5 3 6 13 9 18 42 51 50 49 54 51 46 40 31 22 15 11 9 11 11 15 18 19 21 23 25 27 29 32 36 42 47 52 55 57 59 60 61 65 69 70 74 80
Wind_Direction_850mb
63 93 189 325 53 63 293 276 297 98 94 137 138 151 158 73 142 186 146 153 157 157 154 147 138 144 152 147 141 144 142 141 133 124 134 122 107 105 103 99 77 35 30 23 51 45 56 52 51
10 340 302 12 83 50 274 258 171 151 125 108 98 93 60 91 105 139 145 149 158 155 151 151 148 150 165 161 157 149 153 159 157 153 159 170 124 115 127 81 11 360 12 27 42 53 54 53 51
352 325 335 88 105 172 235 209 136 128 124 91 105 73 78 117 133 140 149 147 157 154 150 152 151 158 157 174 184 180 170 171 168 165 164 187 191 203 23 352 344 343 11 19 52 56 52 48 51
350 307 56 81 221 256 255 137 135 129 106 140 126 67 72 198 138 146 146 147 154 150 149 154 157 163 163 160 167 170 168 167 165 158 131 137 115 58 35 15 18 33 26 30 45 47 46 41 26
350 25 55 57 282 277 313 171 152 141 133 137 157 119 107 133 143 148 146 148 155 150 148 153 161 161 157 156 157 157 153 142 130 125 120 116 101 82 74 56 50 51 47 30 30 36 28 18 357
15 64 53 193 268 289 43 153 150 91 125 132 105 100 147 176 168 154 150 150 157 154 149 148 156 162 164 168 158 151 143 133 120 109 105 103 101 97 86 54 40 39 43 43 37 34 26 13 356
72 71 165 242 289 320 150 161 150 138 139 157 138 93 148 161 164 158 156 157 160 162 157 154 153 161 166 162 156 149 141 134 120 110 100 89 79 70 57 44 38 37 31 22 14 2 354 349 344
27 91 99 294 288 295 11 156 184 159 159 150 147 159 177 169 166 161 161 164 167 170 168 170 167 166 164 161 156 147 145 136 127 107 92 81 69 52 20 352 344 343 340 332 324 321 321 321 320
139 57 123 255 280 316 14 9 150 166 141 161 191 178 181 166 168 164 166 170 172 177 179 179 182 177 167 153 150 144 139 143 139 127 107 70 42 14 0 345 328 326 323 316 310 309 310 312 312
124 123 206 215 302 319 315 253 175 169 147 178 186 204 167 170 173 175 174 177 179 181 182 182 186 187 178 171 165 161 158 157 157 151 113 79 62 39 26 22 21 9 348 338 324 315 311 303 305
162 188 198 138 341 344 310 288 186 154 223 206 192 176 169 175 179 185 184 187 187 185 185 185 184 191 194 188 183 180 180 168 163 163 149 104 46 37 27 19 15 15 13 13 7 355 345 339 324
148 228 242 305 341 325 322 316 249 186 214 229 216 193 176 183 186 189 190 187 190 192 191 190 189 188 192 197 198 191 198 203 188 170 165 9 347 3 9 9 6 1 358 359 355 351 348 340 339
181 185 224 272 329 320 308 274 232 224 243 199 192 184 186 188 190 192 196 192 195 197 193 194 198 196 198 200 203 206 204 202 204 216 244 295 319 333 337 339 339 338 334 338 335 334 334 331 329
183 180 202 299 308 309 324 307 173 220 218 177 185 187 191 193 193 193 198 196 199 198 200 198 201 203 210 205 206 213 223 222 236 253 277 289 301 308 313 315 316 320 319 320 319 316 318 320 317
137 153 236 185 201 302 320 293 235 214 187 178 185 190 195 199 199 204 203 204 204 203 202 205 201 201 208 210 216 226 242 258 264 274 279 286 292 296 299 303 307 311 311 308 307 309 310 310 310
127 122 198 152 23 239 147 272 331 220 186 185 191 195 200 204 208 209 213 214 216 217 215 216 219 222 224 223 237 252 262 271 279 285 285 288 293 298 299 300 302 305 302 300 300 302 302 305 307
305 197 216 187 95 196 175 254 341 239 195 195 196 200 205 210 213 215 216 223 226 229 227 227 231 235 241 251 263 268 275 277 284 287 293 299 300 302 301 300 301 301 298 296 296 297 301 304 305
184 209 187 204 213 126 133 255 335 344 216 209 205 207 211 217 220 219 220 227 234 238 239 238 243 248 253 258 262 268 272 282 294 304 307 308 304 306 302 298 301 301 298 299 301 298 298 302 305
178 191 177 70 139 149 218 241 266 319 260 219 218 213 219 223 225 226 224 231 238 241 246 248 247 252 255 256 260 271 284 292 296 296 298 300 297 295 293 294 298 303 303 303 305 304 303 301 302
182 210 205 82 342 140 160 263 242 276 260 239 228 226 227 227 227 228 225 227 234 241 245 248 249 250 251 257 259 264 273 281 286 291 293 296 297 297 297 294 293 296 298 300 301 301 301 301 301
221 220 201 176 141 9 130 257 217 141 88 36 67 242 241 232 228 226 226 228 232 240 245 247 249 250 250 254 258 265 274 280 284 286 289 289 291 290 290 290 291 292 293 294 296 298 299 301 300
238 184 131 130 161 205 145 254 232 188 88 56 48 62 113 174 178 161 182 214 229 243 249 253 254 251 256 260 263 267 273 280 288 295 297 298 299 299 299 297 296 294 292 293 292 292 294 300 304
195 359 147 155 145 116 229 201 166 163 137 107 76 77 87 105 117 113 110 108 110 109 117 116 157 194 235 254 269 278 285 290 292 297 304 309 314 317 319 319 317 312 306 299 294 292 292 293 297
141 87 46 45 77 221 174 198 195 192 158 122 108 103 93 91 105 104 104 108 104 102 97 97 88 80 62 22 9 356 343 330 319 316 316 321 326 327 327 328 327 326 321 315 310 306 303 300 297
148 121 98 177 189 236 295 187 296 181 147 139 132 117 113 108 100 103 100 94 97 94 89 79 78 81 64 45 19 359 351 342 338 333 330 326 325 327 330 332 332 328 323 318 313 309 308 306 304
165 157 188 181 196 160 4 226 235 234 152 148 134 133 132 128 101 91 89 51 31 41 38 35 40 45 31 353 340 335 330 334 334 332 330 329 326 324 321 320 321 320 319 317 314 310 307 303 298
149 147 28 105 43 99 203 289 300 91 119 146 139 136 133 137 156 177 311 4 352 3 360 356 324 350 339 353 355 358 358 351 350 347 341 336 334 332 329 329 327 326 327 325 321 318 314 312 309
251 143 122 29 150 207 249 271 229 181 151 150 139 124 133 132 133 129 111 130 134 120 113 125 112 108 61 344 337 344 344 339 335 332 327 329 329 329 329 331 330 330 329 327 324 323 321 318 315
133 135 82 107 160 146 150 251 330 187 167 142 135 139 148 145 143 138 131 134 133 136 142 133 121 52 353 345 345 340 336 333 332 330 329 332 331 330 333 334 332 330 325 321 319 316 314 313 312
197 170 146 132 208 249 186 260 318 165 116 132 126 132 143 142 138 136 136 135 133 121 99 73 47 22 13 2 350 345 345 340 339 341 340 340 339 340 338 335 331 327 325 324 321 319 318 314 311